Weather in Tyrnauz

Russia / The Kabardino-Balkar Republic     43°23′53″N   42°55′17″E
temp.,
°C
wind,
m/s
gust,
m/s
humid.,
%
clouds,
%
prec.,
mm/h
press.,
hPa
HPBL,
m
2 march, tue
tue200:00−11sw3374100 0.0 103025
03:00−12sw446598 0.0 103030
06:00−13sw445820 0.0 103125
09:00−8wsw226610 0.0 103074
12:00−5ne21690 0.0 1027416
15:00−5ne21874 0.0 1026345
18:00−10sw229394 0.0 102622
21:00−11sw446256 0.0 102731
3 march, wed
wed300:00−11sw55600 0.0 102547
03:00−11sw55570 0.0 102441
06:00−10sw546191 0.0 102347
09:00−6wsw237092 0.0 1022126
12:00−4e1276100 0.1 1020427
15:00−4n2575100 0.2 10201017
18:00−9s119598 1.0 102338
21:00−12wsw457290 1.4 102645
4 march, thu
thu400:00−14wsw45673 0.0 102834
03:00−14sw34641 0.0 102926
06:00−12wsw44550 0.0 102925
09:00−7wnw11580 0.0 102838
12:00−4ene21730 0.0 1026229
15:00−4ene21942 0.0 1024220
18:00−6s119694 0.0 102421
21:00−9sw345269 0.0 102524
5 march, fri
fri500:00−9sw44490 0.0 102429
03:00−8sw44440 0.0 102326
06:00−8sw44430 0.0 102223
09:00−2wsw22660 0.0 102142
12:00−1ne11800 0.0 1019156
15:00−1ene11910 0.0 1019115
18:00−5sw22770 0.0 102022
21:00−6sw55490 0.0 102233
6 march, sat
sat600:00−6sw55440 0.0 102133
03:00−6sw55441 0.0 102035
06:00−6sw554221 0.0 102035
09:00−1sw336211 0.0 101847
12:00+2sse11982 0.0 101548
15:00+1sw119751 0.0 101441
18:00−2sw3466100 0.0 101533
21:00−4sw5568100 0.0 101674